FENGYUN 1C DEB, 36236

Orbit data source: Space-Track

FENGYUN 1C DEB, 36236 is space debris in SSO originally from a launch on Mon, 10 May 1999 UTC launched from the Taiyaun Space Center, China (TSC). Fengyun 1C debris stems from the Chinese weather satellite Fengyun-1C, which was intentionally destroyed by a Chinese anti-satellite missile in 2007. This event dramatically increased the amount of space debris, with thousands of trackable fragments posing hazards to satellites and human spaceflight. The Fengyun 1C debris cloud has become a focal point in discussions about space sustainability and the need for international regulations to prevent the creation of new debris.

Loading next visibility...
Identifier
36236, 1999-025DVM
Orbit
SSO
Country
Flag of CNCN / PRC
Related business
Manufacturer
Unknown
Mission
Spacecraft
Bus & Motor
Unknown
Mass
Unknown
Launch date (UTC)
1999-05-10 (27 years ago)
Launch vehicle
Unknown
Launch site
Taiyaun Space Center, China (TSC)
Object type
Payload
Rocket body
Debris
Shape & HBR
Unknown shape, 0.1 m
Radar Cross Section
Small (<0.1 m²)

Expand to show TLE details & history
Last TLE update: 2 days ago

TLE from 2 days ago
0 FENGYUN 1C DEB
1 36236U 99025DVM 26205.35645269  .00000252  00000-0  24828-3 0  9996
2 36236  98.8234 236.8057 0150890 114.9905 246.7007 13.82109032628369
Epoch: 2026-07-24T08:33Z
TLE epoch observation values (Epoch: 2026-07-24T08:33:17.512Z)
Latitude
-0.00005°
Longitude
166.39848°
Altitude
1,004.455 km
Speed
7.327 km/s
True Right ascension
15h 47m 13s
True Declination
0° 00' 00"
Sunlit
Object was in daylight at epoch
Visualization orbit readout
Latitude
Unknown
Longitude
Unknown
Altitude
Unknown
Speed
Unknown
Apparent Right ascension
Unknown
Apparent Declination
Unknown
Sunlit
N/A
Visualization observer readout
Local Sidereal Time
20:25:23
Azimuth
Unknown
Elevation
Unknown
Doppler factor
Unknown
Orbital elements
Apogee altitude
1,064.259 km
Perigee altitude
843.001 km
Semi-major axis
7,331.767 km
Eccentricity
0.01509
Inclination
98.8234°
RAAN
236.8057°
Arg. of periapsis
114.9905°
True anomaly
245.12459°
Mean anomaly
246.7007°
Eccentric anomaly
245.91145°
Mean motion
3.45725 °/min
Orbital period
104.13 mins
BSTAR
0.00024828
Loading maneuver chart data...
Computing Atmospheric mass density...

Documentation

Showing up to 5 results
|